Dati Storici

Data ora Umidita' aria (%) Temperatura aria (°C) Rad globale (W/m²) Gonioanemometro (°) Tacoanemometro (m/s) Pioggia (mm)
08-06-2020 12:50 97.9 % 17.482 -77.025 1.002 0 0
08-06-2020 12:40 97.9 % 17.276 -72.944 0.201 0 0
08-06-2020 12:30 97.9 % 17.005 -77.197 0.353 0 0
08-06-2020 12:20 97.9 % 16.805 -78.362 1.266 0 0
08-06-2020 12:10 97.9 % 16.872 -44.27 0.556 0 0
08-06-2020 12:00 97.9 % 16.567 -78.339 1.022 0 0
08-06-2020 11:50 97.8 % 16.261 -71.317 0.61 0 0
08-06-2020 11:40 97.8 % 16.502 -71.111 0.789 0 0
08-06-2020 11:30 97.7 % 17.288 -75.797 3.269 0 0
08-06-2020 11:20 97.7 % 18.756 -48.538 0.908 0 0
08-06-2020 11:10 97.7 % 18.719 -78.761 2.529 0 0
08-06-2020 11:00 97.6 % 18.975 -79.344 1.774 0 0
08-06-2020 10:50 97.4 % 19.428 -80.409 1.552 0 0
08-06-2020 10:40 97.6 % 19.301 -78.496 2.582 0 0
08-06-2020 10:30 97.7 % 18.96 -80.718 1.499 0 0
08-06-2020 10:20 97.6 % 18.884 -80.543 1.937 0 0
08-06-2020 10:10 97.6 % 19.105 -49.597 1.719 0 0
08-06-2020 10:00 97.6 % 19.566 -55.256 1.513 0 0
08-06-2020 09:50 97.6 % 19.614 -78.699 0.965 0 0
08-06-2020 09:40 97.6 % 19.349 -77.393 0.784 0 0

I dati sono presentati in modo automatico a scopo informativo. In seguito a verifica i dati possono subire modifiche o essere invalidati e non riportati negli archivi definitivi.